Regional Weather Roundup
Issued by NWS

Home | Current Version | Previous Version | Text Only | Print | Product List | Glossary Off
Versions: 1 2 3 4 5 6 7 8 9 10 11 12 13 14 15 16 17 18 19 20 21 22 23 24 25 26 27 28 29 30 31 32 33 34 35 36 37 38 39 40 41 42 43 44 45 46 47 48 49 50

000
ASUS43 KLOT 300910
RWRIL

ILLINOIS REGIONAL WEATHER ROUNDUP
NATIONAL WEATHER SERVICE CHICAGO/ROMEOVILLE IL
400 AM CDT THU OCT 30 2014

NOTE: "FAIR" INDICATES FEW OR NO CLOUDS BELOW 12,000 FEET WITH NO
SIGNIFICANT WEATHER AND/OR OBSTRUCTIONS TO VISIBILITY.

* THESE STATIONS ARE NOT UNDER NWS QUALITY CONTROL. THEY ALSO MAY NOT
  REPORT WEATHER SUCH AS PRECIPITATION OR FOG.

ILZ001-002-007-009-015-016-024-301000-
NORTHWEST ILLINOIS

CITY           SKY/WX    TMP DP  RH WIND       PRES   REMARKS
MOLINE         CLEAR     31  28  89 CALM      30.12F
STERLING*      CLEAR     28  23  80 SE3       30.13F
SAVANNA*       PTCLDY    32  30  95 NE3       30.12F FOG
$$

ILZ003-004-008-010-011-017-018-301000-
NORTH CENTRAL ILLINOIS

CITY           SKY/WX    TMP DP  RH WIND       PRES   REMARKS
ROCKFORD       PTCLDY    32  29  88 SE3       30.14F
FREEPORT*      PTCLDY    29  27  92 CALM      30.14S
ROCHELLE*      CLEAR     27  26  97 CALM      30.13F
DE KALB*       PTCLDY    31  28  88 CALM      30.13F
PERU*          CLEAR     33  31  94 CALM      30.14F FOG
$$

ILZ005-006-012>014-019>023-301000-
NORTHEAST ILLINOIS

CITY           SKY/WX    TMP DP  RH WIND       PRES   REMARKS
CHICAGO-OHARE  PTCLDY    36  31  82 CALM      30.13S
CHICAGO-MIDWAY PTCLDY    40  34  79 CALM      30.14S
AURORA         CLEAR     28  24  85 CALM      30.14F
LANSING*       CLEAR     33  32  96 CALM      30.15S
JOLIET*        CLEAR     31  31  99 CALM      30.15S
WAUKEGAN       PTCLDY    35  31  85 SW3       30.12S
DUPAGE AIRPORT CLEAR     33  31  92 CALM      30.13S
KANKAKEE*      CLEAR     32  31  95 CALM      30.16S
WHEELING       PTCLDY    35  30  82 CALM      30.15S
MORRIS*        CLEAR     31  30  96 CALM      30.15S
ROMEOVILLE*    CLEAR     33  31  95 W5        30.14S WCI  28
NORTHERLY ISL    N/A     43  34  70 W6          N/A
$$

LMZ740>746-301000-
SOUTHERN LAKE MICHIGAN

STATION/POSITION SKY/WX   TEMP    WIND        PRES    VSBY  WAVE
                          AIR SEA DIR/SP/G                  HT/PER
                          (F)     (DEG/KT/KT) (MB)    (MI)  (FT/S)
SOUTHERN BUOY              47 53  280/  4/  6 1020.3F         2/ 5
WAUKEGAN HARBOR            41     260/  5/  7   N/A
HARRISON CRIB              45     280/  7/  8   N/A
BURNHAM HARBOR             43     270/  5/  6   N/A
CALUMET HARBOR             39     220/  2/  4 1019.3F
MICHIGAN CITY              46     170/  4/  6   N/A
$$

ILZ025>027-034>036-040-047-049-050-058-095>099-301000-
WEST-CENTRAL ILLINOIS

CITY           SKY/WX    TMP DP  RH WIND       PRES   REMARKS
QUINCY         CLEAR     37  32  82 SE5       30.13R WCI  33
GALESBURG*     CLEAR     31  31 100 CALM      30.13F
MACOMB*        CLEAR     30  28  95 CALM      30.15F
JACKSONVILLE*  CLEAR     36  33  87 SE3       30.14F
PITTSFIELD*    CLEAR     36  33  90 CALM      30.15R
$$

ILZ028>032-037-038-041>044-048-051>054-059>061-301000-
CENTRAL ILLINOIS

CITY           SKY/WX    TMP DP  RH WIND       PRES   REMARKS
PONTIAC        CLEAR     30  29  97 CALM      30.16S
BLOOMINGTON    CLEAR     35  32  89 SW3       30.16S
DECATUR        CLEAR     34  31  88 CALM      30.17S
PEORIA         CLEAR     35  31  85 CALM      30.15S
LACON*         CLEAR     29  28  92 CALM      30.14S
LINCOLN*       CLEAR     32  32  97 CALM      30.16F
SPRINGFIELD    CLEAR     35  32  88 CALM      30.16F
TAYLORVILLE    CLEAR     34  32  93 S3        30.16S
$$

ILZ033-039-045-046-055>057-062-063-301000-
EAST-CENTRAL ILLINOIS

CITY           SKY/WX    TMP DP  RH WIND       PRES   REMARKS
CHAMPAIGN      CLEAR     33  30  88 W3        30.16S
DANVILLE*      CLEAR     33  32  94 CALM      30.14R
RANTOUL*       CLEAR     35  32  90 CALM      30.16S
MATTOON        CLEAR     36  33  89 CALM      30.16S
PARIS*         CLEAR     32  32 100 CALM      30.18R
$$

ILZ079-100>102-301000-
SOUTHWEST ILLINOIS

CITY           SKY/WX    TMP DP  RH WIND       PRES   REMARKS
ALTON          CLEAR     35  34  96 CALM      30.16S
BELLEVILLE     CLEAR     36  36  99 NW2       30.15F
CAHOKIA*       CLEAR     35  33  92 CALM      30.16F
SPARTA*        CLEAR     36  34  94 CALM      30.17F
$$

ILZ064>066-069>071-074>076-080>082-084>086-088>090-092>094-301000-
SOUTH-CENTRAL ILLINOIS

CITY           SKY/WX    TMP DP  RH WIND       PRES   REMARKS
CARBONDALE     CLEAR     34  33  96 CALM      30.17S FOG
CAIRO*         CLEAR     38  35  89 CALM      30.17S
EFFINGHAM*     CLEAR     34  32  91 CALM      30.17F FOG
MARION         CLEAR     37  37 100 CALM      30.17S
MT. VERNON     CLEAR     32  27  80 CALM      30.17S
CENTRALIA*     CLEAR     35  33  93 CALM      30.17S
SALEM*         CLEAR     37  36  96 CALM      30.17S FOG
METROPOLIS*    CLEAR     37  37 100 CALM      30.16S
$$

ILZ067-068-072-073-078-083-087-091-301000-
SOUTHEAST ILLINOIS

CITY           SKY/WX    TMP DP  RH WIND       PRES   REMARKS
LAWRENCEVILLE  CLEAR     36  32  85 NW3       30.17F
FLORA*         CLEAR     36  36  99 CALM      30.18S
FAIRFIELD*     CLEAR     36  35  98 CALM      30.17R
HARRISBURG*    CLEAR     35  35 100 CALM      30.19R
ROBINSON*      CLEAR     36  36 100 CALM      30.18S
CARMI*           N/A     37  37 100 W3        30.17R FOG
$$

ABBREVIATIONS USED IN REMARKS
   TC - TEMPERATURE IN CELSIUS
  WCI - WIND CHILL INDEX
   HX - HEAT INDEX
  VSB - VISIBILITY
$$




USA.gov is the U.S. government's official web portal to all federal, state and local government web resources and services.